Time,TemperatureF,DewpointF,PressureIn,WindDirection,WindDirectionDegrees,WindSpeedMPH,WindSpeedGustMPH,Humidity,HourlyPrecipIn,Conditions,Clouds,dailyrainin,SoftwareType,DateUTC
2013-01-28 00:02:00,21.0,20.0,-100.00,SE,135,6.0,7.0,93,0.00,,,-99.99,,2013-01-28 07:02:00,
2013-01-28 00:11:00,20.0,19.0,-100.00,East,95,7.0,10.0,93,0.00,,,-99.99,,2013-01-28 07:11:00,
2013-01-28 00:21:00,20.0,19.0,-100.00,East,100,7.0,10.0,93,0.00,,,-99.99,,2013-01-28 07:21:00,
2013-01-28 00:32:00,21.0,19.0,-100.00,ESE,115,7.0,11.0,93,0.00,,,-99.99,,2013-01-28 07:32:00,
2013-01-28 00:42:00,21.0,19.0,-100.00,East,80,7.0,9.0,93,0.00,,,-99.99,,2013-01-28 07:42:00,
2013-01-28 00:51:00,21.0,20.0,-100.00,SE,130,6.0,7.0,93,0.00,,,-99.99,,2013-01-28 07:51:00,
2013-01-28 01:01:00,22.0,20.0,-100.00,ESE,105,7.0,9.0,93,0.00,,,-99.99,,2013-01-28 08:01:00,
2013-01-28 01:11:00,22.0,20.0,-100.00,ESE,115,6.0,9.0,93,0.00,,,-99.99,,2013-01-28 08:11:00,
2013-01-28 01:21:00,22.0,21.0,-100.00,ESE,110,4.0,9.0,92,0.00,,,-99.99,,2013-01-28 08:21:00,
2013-01-28 01:32:00,22.0,20.0,-100.00,ESE,110,2.0,6.0,92,0.00,,,-99.99,,2013-01-28 08:32:00,
2013-01-28 01:42:00,23.0,22.0,-100.00,NE,55,4.0,9.0,92,0.00,,,-99.99,,2013-01-28 08:42:00,
2013-01-28 01:52:00,24.0,23.0,-100.00,East,90,6.0,11.0,92,0.00,,,-99.99,,2013-01-28 08:52:00,
2013-01-28 02:02:00,24.0,22.0,-100.00,ESE,105,4.0,9.0,92,0.00,,,-99.99,,2013-01-28 09:02:00,
2013-01-28 02:11:00,23.0,21.0,-100.00,SE,140,2.0,8.0,92,0.00,,,-99.99,,2013-01-28 09:11:00,
2013-01-28 02:21:00,22.0,20.0,-100.00,ESE,120,6.0,8.0,91,0.00,,,-99.99,,2013-01-28 09:21:00,
2013-01-28 02:32:00,22.0,20.0,-100.00,East,80,7.0,8.0,90,0.00,,,-99.99,,2013-01-28 09:32:00,
2013-01-28 02:42:00,22.0,20.0,-100.00,WNW,290,4.0,10.0,90,0.00,,,-99.99,,2013-01-28 09:42:00,
2013-01-28 02:52:00,23.0,21.0,-100.00,NNE,15,3.0,7.0,90,0.00,,,-99.99,,2013-01-28 09:52:00,
2013-01-28 03:02:00,23.0,21.0,-100.00,NW,305,0.0,6.0,90,0.00,,,-99.99,,2013-01-28 10:02:00,
2013-01-28 03:11:00,23.0,21.0,-100.00,NE,40,6.0,9.0,90,0.00,,,-99.99,,2013-01-28 10:11:00,
2013-01-28 03:21:00,22.0,19.0,-100.00,ESE,120,1.0,5.0,90,0.00,,,-99.99,,2013-01-28 10:21:00,
2013-01-28 03:32:00,21.0,19.0,-100.00,ESE,105,9.0,10.0,90,0.00,,,-99.99,,2013-01-28 10:32:00,
2013-01-28 03:41:00,21.0,19.0,-100.00,ENE,75,3.0,9.0,90,0.00,,,-99.99,,2013-01-28 10:41:00,
2013-01-28 03:52:00,21.0,19.0,-100.00,ENE,70,4.0,6.0,90,0.00,,,-99.99,,2013-01-28 10:52:00,
2013-01-28 04:02:00,21.0,19.0,-100.00,SE,135,4.0,4.0,90,0.00,,,-99.99,,2013-01-28 11:02:00,
2013-01-28 04:11:00,20.0,18.0,-100.00,SE,135,4.0,6.0,90,0.00,,,-99.99,,2013-01-28 11:11:00,
2013-01-28 04:22:00,20.0,18.0,-100.00,SE,135,4.0,6.0,90,0.00,,,-99.99,,2013-01-28 11:22:00,
2013-01-28 04:32:00,21.0,19.0,-100.00,East,90,7.0,8.0,90,0.00,,,-99.99,,2013-01-28 11:32:00,
2013-01-28 04:42:00,20.0,19.0,-100.00,ESE,110,5.0,8.0,91,0.00,,,-99.99,,2013-01-28 11:42:00,
2013-01-28 04:52:00,21.0,19.0,-100.00,SE,140,3.0,7.0,91,0.00,,,-99.99,,2013-01-28 11:52:00,
2013-01-28 05:03:00,22.0,20.0,-100.00,East,80,3.0,4.0,92,0.00,,,-99.99,,2013-01-28 12:03:00,
2013-01-28 05:12:00,22.0,20.0,-100.00,ESE,120,4.0,6.0,92,0.00,,,-99.99,,2013-01-28 12:12:00,
2013-01-28 05:23:00,22.0,20.0,-100.00,East,100,6.0,6.0,92,0.00,,,-99.99,,2013-01-28 12:23:00,
2013-01-28 05:33:00,22.0,20.0,-100.00,SE,130,3.0,5.0,92,0.00,,,-99.99,,2013-01-28 12:33:00,
2013-01-28 05:42:00,22.0,20.0,-100.00,ESE,110,2.0,5.0,92,0.00,,,-99.99,,2013-01-28 12:42:00,
2013-01-28 05:52:00,22.0,20.0,-100.00,SE,145,2.0,4.0,92,0.00,,,-99.99,,2013-01-28 12:52:00,
2013-01-28 06:03:00,22.0,20.0,-100.00,ESE,115,6.0,7.0,92,0.00,,,-99.99,,2013-01-28 13:03:00,
2013-01-28 06:12:00,22.0,21.0,-100.00,ESE,115,6.0,7.0,92,0.00,,,-99.99,,2013-01-28 13:12:00,
2013-01-28 06:23:00,23.0,21.0,-100.00,SE,125,4.0,6.0,92,0.00,,,-99.99,,2013-01-28 13:23:00,
2013-01-28 06:33:00,23.0,21.0,-100.00,ESE,105,4.0,6.0,92,0.00,,,-99.99,,2013-01-28 13:33:00,
2013-01-28 06:42:00,23.0,22.0,-100.00,East,95,3.0,6.0,92,0.00,,,-99.99,,2013-01-28 13:42:00,
2013-01-28 06:53:00,24.0,22.0,-100.00,East,90,4.0,5.0,92,0.00,,,-99.99,,2013-01-28 13:53:00,
2013-01-28 07:03:00,24.0,22.0,-100.00,ESE,110,4.0,6.0,92,0.00,,,-99.99,,2013-01-28 14:03:00,
2013-01-28 07:12:00,24.0,22.0,-100.00,ESE,105,3.0,5.0,92,0.00,,,-99.99,,2013-01-28 14:12:00,
2013-01-28 07:22:00,24.0,22.0,-100.00,East,90,1.0,4.0,92,0.00,,,-99.99,,2013-01-28 14:22:00,
2013-01-28 07:33:00,24.0,23.0,-100.00,East,80,4.0,7.0,92,0.00,,,-99.99,,2013-01-28 14:33:00,
2013-01-28 07:43:00,24.0,22.0,-100.00,ESE,110,5.0,6.0,92,0.00,,,-99.99,,2013-01-28 14:43:00,
2013-01-28 07:52:00,24.0,23.0,-100.00,East,90,1.0,5.0,92,0.00,,,-99.99,,2013-01-28 14:52:00,
2013-01-28 08:03:00,24.0,22.0,-100.00,East,90,1.0,4.0,92,0.00,,,-99.99,,2013-01-28 15:03:00,
2013-01-28 08:12:00,25.0,23.0,-100.00,East,80,4.0,6.0,92,0.00,,,-99.99,,2013-01-28 15:12:00,
2013-01-28 08:23:00,25.0,23.0,-100.00,East,85,6.0,7.0,92,0.00,,,-99.99,,2013-01-28 15:23:00,
2013-01-28 08:33:00,25.0,23.0,-100.00,ESE,105,6.0,7.0,92,0.00,,,-99.99,,2013-01-28 15:33:00,
2013-01-28 08:43:00,25.0,23.0,-100.00,ENE,60,7.0,9.0,92,0.00,,,-99.99,,2013-01-28 15:43:00,
2013-01-28 08:53:00,26.0,24.0,-100.00,East,90,5.0,7.0,92,0.00,,,-99.99,,2013-01-28 15:53:00,
2013-01-28 09:04:00,26.0,24.0,-100.00,ESE,105,4.0,6.0,92,0.00,,,-99.99,,2013-01-28 16:04:00,
2013-01-28 09:12:00,26.0,24.0,-100.00,ENE,75,5.0,6.0,92,0.00,,,-99.99,,2013-01-28 16:12:00,
2013-01-28 09:22:00,27.0,25.0,-100.00,East,95,2.0,6.0,92,0.00,,,-99.99,,2013-01-28 16:22:00,
2013-01-28 09:32:00,27.0,26.0,-100.00,ESE,105,2.0,3.0,92,0.00,,,-99.99,,2013-01-28 16:32:00,
2013-01-28 09:42:00,28.0,26.0,-100.00,East,100,1.0,3.0,92,0.00,,,-99.99,,2013-01-28 16:42:00,
2013-01-28 09:53:00,29.0,28.0,-100.00,NE,50,1.0,3.0,92,0.00,,,-99.99,,2013-01-28 16:53:00,
2013-01-28 10:02:00,29.0,28.0,-100.00,East,80,1.0,4.0,92,0.00,,,-99.99,,2013-01-28 17:02:00,
2013-01-28 10:12:00,30.0,28.0,-100.00,WNW,295,2.0,6.0,92,0.00,,,-99.99,,2013-01-28 17:12:00,
2013-01-28 10:23:00,30.0,28.0,-100.00,WNW,300,22.0,27.0,92,0.00,,,-99.99,,2013-01-28 17:23:00,
2013-01-28 10:32:00,29.0,28.0,-100.00,NW,305,22.0,27.0,95,0.00,,,-99.99,,2013-01-28 17:32:00,
2013-01-28 10:42:00,29.0,28.0,-100.00,WNW,300,22.0,24.0,97,0.10,,,-99.99,,2013-01-28 17:42:00,
2013-01-28 10:53:00,28.0,28.0,-100.00,WNW,295,19.0,24.0,98,0.30,,,-99.99,,2013-01-28 17:53:00,
2013-01-28 11:03:00,28.0,28.0,-100.00,WNW,295,17.0,22.0,98,0.10,,,-99.99,,2013-01-28 18:03:00,
2013-01-28 11:12:00,28.0,28.0,-100.00,WNW,290,14.0,19.0,98,0.10,,,-99.99,,2013-01-28 18:12:00,
2013-01-28 11:23:00,28.0,28.0,-100.00,WNW,290,13.0,18.0,98,0.00,,,-99.99,,2013-01-28 18:23:00,
2013-01-28 11:33:00,28.0,28.0,-100.00,WNW,285,14.0,21.0,98,0.00,,,-99.99,,2013-01-28 18:33:00,
2013-01-28 11:42:00,28.0,28.0,-100.00,WNW,285,17.0,24.0,99,0.00,,,-99.99,,2013-01-28 18:42:00,
2013-01-28 11:52:00,28.0,28.0,-100.00,WNW,285,17.0,26.0,99,0.00,,,-99.99,,2013-01-28 18:52:00,
2013-01-28 12:02:00,28.0,28.0,-100.00,WNW,295,13.0,25.0,99,0.00,,,-99.99,,2013-01-28 19:02:00,
2013-01-28 12:12:00,28.0,28.0,-100.00,WNW,290,15.0,21.0,99,0.00,,,-99.99,,2013-01-28 19:12:00,
2013-01-28 12:22:00,28.0,28.0,-100.00,WNW,290,18.0,24.0,99,0.00,,,-99.99,,2013-01-28 19:22:00,
2013-01-28 12:32:00,28.0,28.0,-100.00,WNW,295,15.0,25.0,99,0.00,,,-99.99,,2013-01-28 19:32:00,
2013-01-28 12:42:00,28.0,28.0,-100.00,WNW,295,16.0,21.0,99,0.00,,,-99.99,,2013-01-28 19:42:00,
2013-01-28 12:52:00,28.0,28.0,-100.00,WNW,300,15.0,24.0,99,0.00,,,-99.99,,2013-01-28 19:52:00,
2013-01-28 13:02:00,28.0,28.0,-100.00,West,275,14.0,27.0,99,0.00,,,-99.99,,2013-01-28 20:02:00,
2013-01-28 13:12:00,28.0,27.0,-100.00,WNW,300,17.0,28.0,97,0.00,,,-99.99,,2013-01-28 20:12:00,
2013-01-28 13:22:00,28.0,27.0,-100.00,WNW,290,12.0,26.0,95,0.00,,,-99.99,,2013-01-28 20:22:00,
2013-01-28 13:33:00,28.0,26.0,-100.00,WNW,295,17.0,28.0,92,0.00,,,-99.99,,2013-01-28 20:33:00,
2013-01-28 13:42:00,28.0,26.0,-100.00,WNW,290,17.0,24.0,92,0.00,,,-99.99,,2013-01-28 20:42:00,
2013-01-28 13:52:00,28.0,26.0,-100.00,WNW,295,13.0,19.0,91,0.00,,,-99.99,,2013-01-28 20:52:00,
2013-01-28 14:03:00,29.0,26.0,-100.00,West,280,12.0,17.0,90,0.00,,,-99.99,,2013-01-28 21:03:00,
2013-01-28 14:12:00,29.0,26.0,-100.00,WNW,290,11.0,14.0,89,0.00,,,-99.99,,2013-01-28 21:12:00,
2013-01-28 14:22:00,29.0,26.0,-100.00,WNW,290,11.0,16.0,88,0.00,,,-99.99,,2013-01-28 21:22:00,
2013-01-28 14:33:00,29.0,25.0,-100.00,WNW,285,12.0,21.0,86,0.00,,,-99.99,,2013-01-28 21:33:00,
2013-01-28 14:43:00,28.0,25.0,-100.00,WNW,290,12.0,19.0,86,0.00,,,-99.99,,2013-01-28 21:43:00,
2013-01-28 14:53:00,28.0,25.0,-100.00,WNW,295,19.0,22.0,88,0.00,,,-99.99,,2013-01-28 21:53:00,
2013-01-28 15:02:00,28.0,26.0,-100.00,WNW,295,19.0,24.0,92,0.20,,,-99.99,,2013-01-28 22:02:00,
2013-01-28 15:11:00,26.0,25.0,-100.00,WNW,300,24.0,29.0,95,0.40,,,-99.99,,2013-01-28 22:11:00,
2013-01-28 15:23:00,26.0,25.0,-100.00,WNW,300,17.0,26.0,96,0.20,,,-99.99,,2013-01-28 22:23:00,
2013-01-28 15:32:00,26.0,26.0,-100.00,WNW,295,15.0,22.0,97,0.10,,,-99.99,,2013-01-28 22:32:00,
2013-01-28 15:42:00,26.0,26.0,-100.00,WNW,290,13.0,16.0,98,0.10,,,-99.99,,2013-01-28 22:42:00,
2013-01-28 15:52:00,26.0,26.0,-100.00,WNW,295,12.0,16.0,98,0.00,,,-99.99,,2013-01-28 22:52:00,
2013-01-28 16:02:00,26.0,26.0,-100.00,WNW,295,16.0,20.0,98,0.10,,,-99.99,,2013-01-28 23:02:00,
2013-01-28 16:12:00,26.0,26.0,-100.00,WNW,290,11.0,20.0,98,0.00,,,-99.99,,2013-01-28 23:12:00,
2013-01-28 16:22:00,26.0,26.0,-100.00,WNW,295,10.0,14.0,98,0.00,,,-99.99,,2013-01-28 23:22:00,
2013-01-28 16:32:00,26.0,26.0,-100.00,WNW,290,11.0,12.0,98,0.00,,,-99.99,,2013-01-28 23:32:00,
2013-01-28 16:42:00,26.0,26.0,-100.00,WNW,295,11.0,14.0,98,0.00,,,-99.99,,2013-01-28 23:42:00,
2013-01-28 16:53:00,26.0,25.0,-100.00,WNW,295,11.0,14.0,98,0.00,,,-99.99,,2013-01-28 23:53:00,
2013-01-28 17:02:00,25.0,25.0,-100.00,West,280,12.0,16.0,98,0.00,,,-99.99,,2013-01-29 00:02:00,
2013-01-28 17:12:00,25.0,25.0,-100.00,WNW,290,12.0,16.0,98,0.00,,,-99.99,,2013-01-29 00:12:00,
2013-01-28 17:22:00,25.0,25.0,-100.00,West,280,9.0,13.0,98,0.00,,,-99.99,,2013-01-29 00:22:00,
2013-01-28 17:32:00,25.0,25.0,-100.00,WNW,290,7.0,12.0,98,0.00,,,-99.99,,2013-01-29 00:32:00,
2013-01-28 17:42:00,25.0,25.0,-100.00,WNW,285,9.0,14.0,98,0.00,,,-99.99,,2013-01-29 00:42:00,
2013-01-28 17:52:00,25.0,25.0,-100.00,WNW,285,8.0,11.0,98,0.00,,,-99.99,,2013-01-29 00:52:00,
2013-01-28 18:02:00,25.0,24.0,-100.00,WNW,295,7.0,10.0,98,0.00,,,-99.99,,2013-01-29 01:02:00,
2013-01-28 18:12:00,25.0,24.0,-100.00,WSW,250,2.0,9.0,98,0.00,,,-99.99,,2013-01-29 01:12:00,
2013-01-28 18:22:00,25.0,24.0,-100.00,WNW,300,3.0,4.0,98,0.00,,,-99.99,,2013-01-29 01:22:00,
2013-01-28 18:32:00,24.0,24.0,-100.00,WSW,255,3.0,4.0,98,0.00,,,-99.99,,2013-01-29 01:32:00,
2013-01-28 18:42:00,24.0,24.0,-100.00,WSW,245,3.0,4.0,98,0.00,,,-99.99,,2013-01-29 01:42:00,
2013-01-28 18:52:00,24.0,24.0,-100.00,SW,215,1.0,3.0,98,0.00,,,-99.99,,2013-01-29 01:52:00,
2013-01-28 19:02:00,24.0,23.0,-100.00,SE,125,0.0,2.0,98,0.00,,,-99.99,,2013-01-29 02:02:00,
2013-01-28 19:12:00,22.0,22.0,-100.00,SE,130,0.0,1.0,98,0.00,,,-99.99,,2013-01-29 02:12:00,
2013-01-28 19:22:00,21.0,21.0,-100.00,SSE,160,0.0,2.0,98,0.00,,,-99.99,,2013-01-29 02:22:00,
2013-01-28 19:33:00,21.0,20.0,-100.00,SE,125,2.0,4.0,98,0.00,,,-99.99,,2013-01-29 02:33:00,
2013-01-28 19:42:00,21.0,20.0,-100.00,NE,50,1.0,4.0,98,0.00,,,-99.99,,2013-01-29 02:42:00,
2013-01-28 19:52:00,21.0,21.0,-100.00,East,90,1.0,4.0,98,0.00,,,-99.99,,2013-01-29 02:52:00,
2013-01-28 20:03:00,20.0,20.0,-100.00,South,175,1.0,2.0,98,0.00,,,-99.99,,2013-01-29 03:03:00,
2013-01-28 20:11:00,20.0,20.0,-100.00,SSW,205,0.0,1.0,98,0.00,,,-99.99,,2013-01-29 03:11:00,
2013-01-28 20:21:00,19.0,19.0,-100.00,SW,230,2.0,4.0,98,0.00,,,-99.99,,2013-01-29 03:21:00,
2013-01-28 20:32:00,19.0,19.0,-100.00,West,270,1.0,4.0,98,0.00,,,-99.99,,2013-01-29 03:32:00,
2013-01-28 20:42:00,19.0,19.0,-100.00,West,270,0.0,2.0,98,0.00,,,-99.99,,2013-01-29 03:42:00,
2013-01-28 20:53:00,19.0,19.0,-100.00,NNW,345,0.0,1.0,98,0.00,,,-99.99,,2013-01-29 03:53:00,
2013-01-28 21:02:00,19.0,19.0,-100.00,ESE,110,2.0,3.0,98,0.00,,,-99.99,,2013-01-29 04:02:00,
2013-01-28 21:11:00,21.0,21.0,-100.00,WNW,295,7.0,9.0,98,0.00,,,-99.99,,2013-01-29 04:11:00,
2013-01-28 21:22:00,22.0,22.0,-100.00,WNW,300,10.0,13.0,98,0.00,,,-99.99,,2013-01-29 04:22:00,
2013-01-28 21:32:00,22.0,22.0,-100.00,NW,305,11.0,15.0,98,0.00,,,-99.99,,2013-01-29 04:32:00,
2013-01-28 21:42:00,22.0,21.0,-100.00,WNW,300,12.0,15.0,98,0.00,,,-99.99,,2013-01-29 04:42:00,
2013-01-28 21:52:00,20.0,20.0,-100.00,WNW,300,14.0,17.0,98,0.00,,,-99.99,,2013-01-29 04:52:00,
2013-01-28 22:03:00,19.0,19.0,-100.00,WNW,295,17.0,21.0,98,0.00,,,-99.99,,2013-01-29 05:03:00,
2013-01-28 22:12:00,18.0,18.0,-100.00,West,275,12.0,24.0,98,0.00,,,-99.99,,2013-01-29 05:12:00,
2013-01-28 22:21:00,17.0,17.0,-100.00,WNW,290,15.0,24.0,98,0.00,,,-99.99,,2013-01-29 05:21:00,
2013-01-28 22:32:00,17.0,16.0,-100.00,WNW,290,18.0,24.0,98,0.00,,,-99.99,,2013-01-29 05:32:00,
2013-01-28 22:42:00,16.0,16.0,-100.00,WNW,300,20.0,24.0,98,0.00,,,-99.99,,2013-01-29 05:42:00,
2013-01-28 22:52:00,16.0,15.0,-100.00,WNW,300,19.0,25.0,98,0.00,,,-99.99,,2013-01-29 05:52:00,
2013-01-28 23:01:00,15.0,15.0,-100.00,WNW,290,11.0,24.0,98,0.00,,,-99.99,,2013-01-29 06:01:00,
2013-01-28 23:11:00,15.0,15.0,-100.00,NW,325,7.0,17.0,98,0.00,,,-99.99,,2013-01-29 06:11:00,
2013-01-28 23:21:00,15.0,15.0,-100.00,WNW,285,6.0,14.0,98,0.00,,,-99.99,,2013-01-29 06:21:00,
2013-01-28 23:32:00,15.0,15.0,-100.00,West,280,7.0,13.0,98,0.10,,,-99.99,,2013-01-29 06:32:00,
2013-01-28 23:42:00,15.0,15.0,-100.00,West,280,9.0,16.0,98,0.10,,,-99.99,,2013-01-29 06:42:00,
2013-01-28 23:52:00,15.0,15.0,-100.00,WNW,290,6.0,12.0,98,0.00,,,-99.99,,2013-01-29 06:52:00,